TimeEDT,TemperatureF,Dew PointF,Humidity,Sea Level PressureIn,VisibilityMPH,Wind Direction,Wind SpeedMPH,Gust SpeedMPH,PrecipitationIn,Events,Conditions,WindDirDegrees,DateUTC
12:54 AM,37.9,35.1,89,29.93,10.0,WSW,3.5,-,N/A,,Partly Cloudy,240,2012-10-17 04:54:00
1:54 AM,39.0,36.0,89,29.94,10.0,Calm,Calm,-,N/A,,Partly Cloudy,0,2012-10-17 05:54:00
2:54 AM,39.0,36.0,89,29.94,10.0,SSW,3.5,-,N/A,,Scattered Clouds,200,2012-10-17 06:54:00
3:54 AM,39.0,36.0,89,29.92,10.0,SSW,3.5,-,N/A,,Partly Cloudy,200,2012-10-17 07:54:00
4:54 AM,37.9,35.1,89,29.92,10.0,SSW,3.5,-,N/A,,Partly Cloudy,210,2012-10-17 08:54:00
5:54 AM,39.0,35.1,86,29.92,10.0,Calm,Calm,-,N/A,,Partly Cloudy,0,2012-10-17 09:54:00
6:54 AM,37.9,35.1,89,29.94,10.0,Calm,Calm,-,N/A,,Scattered Clouds,0,2012-10-17 10:54:00
7:54 AM,37.9,35.1,89,29.93,10.0,SSW,3.5,-,N/A,,Mostly Cloudy,210,2012-10-17 11:54:00
8:54 AM,42.1,37.9,85,29.94,10.0,SSW,6.9,-,N/A,,Mostly Cloudy,210,2012-10-17 12:54:00
9:54 AM,48.9,39.9,71,29.94,10.0,South,5.8,-,N/A,,Mostly Cloudy,190,2012-10-17 13:54:00
10:54 AM,54.0,41.0,62,29.92,10.0,SSW,10.4,-,N/A,,Mostly Cloudy,210,2012-10-17 14:54:00
11:54 AM,60.1,42.1,51,29.88,10.0,SSW,11.5,-,N/A,,Mostly Cloudy,200,2012-10-17 15:54:00
12:54 PM,64.0,41.0,43,29.86,10.0,SSW,8.1,-,N/A,,Mostly Cloudy,200,2012-10-17 16:54:00
1:54 PM,64.9,42.1,43,29.83,10.0,South,6.9,-,N/A,,Overcast,180,2012-10-17 17:54:00
2:54 PM,66.0,39.9,38,29.81,10.0,South,5.8,-,N/A,,Overcast,170,2012-10-17 18:54:00
3:54 PM,66.9,39.9,37,29.80,10.0,South,5.8,-,N/A,,Overcast,170,2012-10-17 19:54:00
4:54 PM,71.1,39.0,31,29.79,10.0,Variable,3.5,-,N/A,,Mostly Cloudy,0,2012-10-17 20:54:00
5:54 PM,66.9,35.1,31,29.81,10.0,South,3.5,-,N/A,,Mostly Cloudy,190,2012-10-17 21:54:00
6:54 PM,64.0,39.0,40,29.81,10.0,SE,3.5,-,N/A,,Mostly Cloudy,140,2012-10-17 22:54:00
7:54 PM,62.1,41.0,46,29.82,10.0,SE,5.8,-,N/A,,Overcast,140,2012-10-17 23:54:00
8:54 PM,60.1,41.0,49,29.81,10.0,SE,5.8,-,N/A,,Mostly Cloudy,140,2012-10-18 00:54:00
9:54 PM,59.0,39.0,48,29.81,10.0,SE,4.6,-,N/A,,Mostly Cloudy,130,2012-10-18 01:54:00
10:54 PM,60.1,41.0,49,29.81,10.0,SSE,5.8,-,0.00,Rain,Light Rain,150,2012-10-18 02:54:00
11:54 PM,57.9,41.0,53,29.81,10.0,SE,5.8,-,0.00,,Mostly Cloudy,140,2012-10-18 03:54:00